Simultaneous Nadir Overpasses (SNOs) Predictions

Prediction of SNOs between AQUA and NPP Satellite Orbit:

Table of predicted SNOs for the next 14.0 days since TLE Epoch: 4/16/2022
Index Date (AQUA) Time (AQUA) Lat,Lon (AQUA) SZA (AQUA ) Date (NPP) Time (NPP) Lat,Lon (NPP) SZA (NPP ) Distance(km) Time Diff (sec)
1 04/17/2022 19:20:43 63.54, 111.04 99.48 04/17/2022 19:19:30 63.81, 109.52 99.80 80.50 73
2 04/17/2022 20:05:46 -77.66, -55.84 95.42 04/17/2022 20:05:44 -77.66, -55.83 95.42 0.26 2
3 04/17/2022 20:53:33 81.17, 138.97 79.05 04/17/2022 20:54:46 80.89, 139.83 78.86 34.20 73
4 04/20/2022 11:32:39 77.30,-109.03 84.11 04/20/2022 11:32:01 77.30,-109.05 84.15 0.71 38
5 04/20/2022 12:21:51 -77.99, 61.57 96.77 04/20/2022 12:22:30 -77.99, 61.56 96.80 0.28 39
6 04/23/2022 02:59:52 -76.00,-165.25 95.26 04/23/2022 02:58:38 -76.04,-165.44 95.18 6.79 74
7 04/23/2022 03:48:38 77.83, 9.17 82.54 04/23/2022 03:48:41 77.83, 9.23 82.52 1.53 3
8 04/25/2022 19:15:31 -77.52, -43.84 97.96 04/25/2022 19:14:58 -77.53, -43.77 97.95 1.72 33
9 04/25/2022 20:04:43 78.10, 126.39 81.30 04/25/2022 20:05:28 78.11, 126.41 81.26 0.59 45
10 04/28/2022 10:42:27 76.93, -97.83 81.93 04/28/2022 10:41:20 76.92, -97.94 82.01 2.85 67



Historial Predications of SNOs between AQUA and NPP
